Location: Cannifist
(18.2333°N, 63.0167°W)
Time: 22:12:48
(UTC+00:00)

Cosmos 1891 Rocket - Pass Details

Date: 27 February 2020
Orbit: 934 x 1018 km, 82.9° (Epoch: 05 April)

Event Time Altitude Azimuth Distance (km) Brightness Sun altitude
Rises 22:42:54 0° 177° (S) 3,599 7.5 -6.8°
Reaches altitude 10° 22:45:22 10° 175° (S) 2,665 6.8 -7.4°
Maximum altitude 22:51:25 69° 92° (E) 1,025 4.4 -8.9°
Drops below altitude 10° 22:57:36 10° 11° (N) 2,726 6.7 -10.3°
Sets 23:00:09 0° 9° (N) 3,688 7.4 -10.9°
